Regional Weather Roundup
Issued by NWS

Home | Current Version | Previous Version | Graphics & Text | Print | Product List | Glossary On
Versions: 1 2 3 4 5 6 7 8 9 10 11 12 13 14 15 16 17 18 19 20 21 22 23 24 25 26 27 28 29 30 31 32 33 34 35 36 37 38 39 40 41 42 43 44 45 46 47 48 49 50
539
ASUS43 KLOT 261603
RWRIL

ILLINOIS REGIONAL WEATHER ROUNDUP
NATIONAL WEATHER SERVICE CHICAGO/ROMEOVILLE IL
1100 AM CDT MON SEP 26 2016

NOTE: "FAIR" INDICATES FEW OR NO CLOUDS BELOW 12,000 FEET WITH NO
SIGNIFICANT WEATHER AND/OR OBSTRUCTIONS TO VISIBILITY.

* THESE STATIONS ARE NOT UNDER NWS QUALITY CONTROL. THEY ALSO MAY NOT
  REPORT WEATHER SUCH AS PRECIPITATION OR FOG.

ILZ001-002-007-009-015-016-024-261700-
NORTHWEST ILLINOIS

CITY           SKY/WX    TMP DP  RH WIND       PRES   REMARKS
MOLINE         SUNNY     67  37  33 W16G29    30.07F
STERLING*      SUNNY     65  41  41 W17       30.05S
$$

ILZ003-004-008-010-011-017-018-261700-
NORTH CENTRAL ILLINOIS

CITY           SKY/WX    TMP DP  RH WIND       PRES   REMARKS
ROCKFORD       SUNNY     65  38  36 W23G36    30.03F
FREEPORT*      SUNNY     63  40  43 W14G28    30.03F
ROCHELLE*      SUNNY     63  40  42 W26G35    30.04S
$$

ILZ005-006-012>014-019>023-261700-
NORTHEAST ILLINOIS

CITY           SKY/WX    TMP DP  RH WIND       PRES   REMARKS
CHICAGO-OHARE  MOSUNNY   65  42  43 W18G28    29.98F
CHICAGO-MIDWAY MOSUNNY   67  41  38 W22G29    29.99F
AURORA         SUNNY     67  39  35 W25G35    30.01F
LANSING*       SUNNY     66  46  47 W18G26    30.01S
WAUKEGAN       SUNNY     64  45  49 W10G18    29.95S
DUPAGE AIRPORT SUNNY     65  40  39 W21G35    30.00S
KANKAKEE*      SUNNY     67  37  33 W16G24    30.05S
WHEELING       SUNNY     64  42  44 W20G26    29.98F
NORTHERLY ISL    N/A     66  39  37 W13         N/A
$$

LMZ740>746-261700-
SOUTHERN LAKE MICHIGAN

STATION/POSITION SKY/WX   TEMP    WIND        PRES    VSBY  WAVE
                          AIR SEA DIR/SP/G                  HT/PER
                          (F)     (DEG/KT/KT) (MB)    (MI)  (FT/S)
SOUTHERN BUOY              61 71  250/ 21/ 25 1013.1          5/ 5
WILMETTE HARBOR            62 63  290/ 12/ 17   N/A           2/ 2
HARRISON CRIB              63     270/ 17/ 22   N/A
BURNHAM HARBOR             65     270/ 15/ 16   N/A
CALUMET HARBOR             64     230/  9/ 14 1015.4F
BURNS HARBOR               63     260/ 18/ 22 1016.3F
MICHIGAN CITY              62     230/ 22/ 25   N/A
MICHIGAN CITY 6N           63 66  270/ 17/ 21   N/A           4/ 5
ST. JOSEPH                 64 65  270/ 19/ 29 1014.8F         7/ 6
$$

ILZ025>027-034>036-040-047-049-050-058-095>099-261700-
WEST-CENTRAL ILLINOIS

CITY           SKY/WX    TMP DP  RH WIND       PRES   REMARKS
QUINCY         SUNNY     68  35  29 NW20G25   30.17S
GALESBURG*     SUNNY     65  37  34 W21       30.11F
MACOMB*        SUNNY     67  37  32 NW14G24   30.15F
$$

ILZ028>032-037-038-041>044-048-051>054-059>061-261700-
CENTRAL ILLINOIS

CITY           SKY/WX    TMP DP  RH WIND       PRES   REMARKS
BLOOMINGTON    SUNNY     66  39  37 W20G28    30.10S
DECATUR        SUNNY     68  39  34 NW18G25   30.13S
PEORIA         SUNNY     67  39  35 W13G24    30.10F
SPRINGFIELD    SUNNY     70  38  31 W15G23    30.14S
TAYLORVILLE    NOT AVBL
$$

ILZ033-039-045-046-055>057-062-063-261700-
EAST-CENTRAL ILLINOIS

CITY           SKY/WX    TMP DP  RH WIND       PRES   REMARKS
CHAMPAIGN      SUNNY     67  40  37 NW16G26   30.11S
MATTOON        CLOUDY    63  49  60 NW10      30.12S
$$

ILZ079-100>102-261700-
SOUTHWEST ILLINOIS

CITY           SKY/WX    TMP DP  RH WIND       PRES   REMARKS
ALTON          MOSUNNY   66  45  45 NW12G20   30.18S
BELLEVILLE     MOSUNNY   68  53  59 NW12      30.15F
CAHOKIA*       SUNNY     69  47  45 N12       30.17S
SPARTA*        CLOUDY    64  58  80 NW8       30.19R
$$

ILZ064>066-069>071-074>076-080>082-084>086-088>090-092>094-261700-
SOUTH-CENTRAL ILLINOIS

CITY           SKY/WX    TMP DP  RH WIND       PRES   REMARKS
CARBONDALE     PTSUNNY   66  58  75 N9        30.17S
MARION         PTSUNNY   64  59  82 N7        30.18R
MT. VERNON     MOSUNNY   66  54  63 CALM      30.16S
CENTRALIA*     CLOUDY    66  56  69 NW7       30.16R
SALEM*         CLOUDY    65  54  66 NW7       30.16R
METROPOLIS*    CLOUDY    64  56  77 N6        30.17S
$$

ILZ067-068-072-073-078-083-087-091-261700-
SOUTHEAST ILLINOIS

CITY           SKY/WX    TMP DP  RH WIND       PRES   REMARKS
LAWRENCEVILLE  CLOUDY    63  56  78 W7        30.14S
FLORA*         CLOUDY    67  56  66 NW7       30.15S
HARRISBURG*    PTSUNNY   64  58  81 N8        30.16R
ROBINSON*      CLOUDY    62  56  81 W9        30.14S
$$

ABBREVIATIONS USED IN REMARKS
   TC - TEMPERATURE IN CELSIUS
  WCI - WIND CHILL INDEX
   HX - HEAT INDEX
  VSB - VISIBILITY
$$





USA.gov is the U.S. government's official web portal to all federal, state and local government web resources and services.